Effective Sunday, March 17, 2024, the National Weather Service National Data Buoy Center will discontinue its Dial-A-Buoy Interactive Voice Response system. For more information, see Service Change Notice 24-06 (PDF).

Station ATKA2 - 9461710 - Atka, AK Image indicating link to RSS feed of recent meteorological observations for station ATKA2


Conditions at ATKA2 as of
(5:30 pm HAST on 03/02/2024)
0330 GMT on 03/03/2024:
     

Click on the graph icon in the table below to see a time series plot of the last five days of that observation.

5-day plot - Wind Direction Wind Direction (WDIR):WSW ( 240 deg true )
5-day plot - Wind Speed Wind Speed (WSPD): 6.0 kts
5-day plot - Wind Gust Wind Gust (GST): 8.9 kts
5-day plot - Atmospheric Pressure Atmospheric Pressure (PRES):29.64 in
5-day plot - Air Temperature Air Temperature (ATMP): 38.1 °F
5-day plot - Water Temperature Water Temperature (WTMP): 39.0 °F
5-day plot - Wind Chill Wind Chill (CHILL): 32.9 °F
5-day plot - Wind Speed at 10 Meters Wind Speed at 10 meters (WSPD10M): 5.8 kts
5-day plot - Wind Speed at 20 Meters Wind Speed at 20 meters (WSPD20M): 5.8 kts
5-day plot -  Wind Speed, Wind Gust and Atmospheric Pressure Combined plot of Wind Speed, Gust, and Air Pressure
NOS Water Level Observation Network Water Level
Previous observations
TIME
(HAST)
5-day plot - Wind Direction
WDIR
 
5-day plot - Wind Speed
WSPD
kts
5-day plot - Wind Gust
GST
kts
5-day plot - Wave Height
WVHT
ft
5-day plot - Dominant Wave Period
DPD
sec
5-day plot - Average Wave Period
APD
sec
5-day plot - Mean Wave Direction
MWD
 
5-day plot - Atmospheric Pressure
PRES
in
5-day plot - Pressure Tendency
PTDY
in
5-day plot - Air Temperature
ATMP
°F
5-day plot - Water Temperature
WTMP
°F
5-day plot - Dew Point
DEWP
°F
5-day plot - Salinity
SAL
psu
5-day plot - Visibility
VIS
nmi
5-day plot - Tide (above MLLW)
TIDE
ft
2024-03-02 05:24 pmSSW 5.1 8.9----29.64- 38.1 39.0----
2024-03-02 05:18 pmSSW 5.1 12.0----29.64- 38.3 39.0----
2024-03-02 05:12 pmSSW 7.0 13.0----29.64- 38.3 39.0----
2024-03-02 05:06 pmSSW 1.0 6.0----29.64- 38.3 39.0----
2024-03-02 05:00 pm E 1.0 11.1----29.64-0.01 38.5 39.0----
2024-03-02 04:54 pmSSE 7.0 12.0----29.64- 38.3 39.0----
2024-03-02 04:48 pmSSW 5.1 7.0----29.63- 38.3 39.2----
2024-03-02 04:42 pmSSW 6.0 8.9----29.63- 38.3 39.2----
2024-03-02 04:36 pmSSW 7.0 15.9----29.64- 38.3 39.0----
2024-03-02 04:30 pm S 8.0 9.9----29.64- 38.1 39.0----
2024-03-02 04:24 pm S 7.0 11.1----29.63- 38.1 39.0----
2024-03-02 04:18 pmSSW 4.1 8.9----29.62- 38.5 39.0----
2024-03-02 04:12 pm SW 8.0 9.9----29.63- 38.3 39.0----
2024-03-02 04:06 pm SW 8.0 8.9----29.63- 38.5 39.0----
2024-03-02 04:00 pm SW 8.0 9.9----29.63-0.01 38.5 39.0----
2024-03-02 03:54 pm SW 8.0 13.0----29.63- 38.3 39.0----
2024-03-02 03:48 pm SW 9.9 14.0----29.63- 38.3 39.0----
2024-03-02 03:42 pmSSW 11.1 15.9----29.64- 38.3 39.0----
2024-03-02 03:36 pm SW 15.0 18.1----29.63- 38.7 39.0----
2024-03-02 03:30 pm SW 15.0 19.0----29.64- 38.8 39.0----
2024-03-02 03:24 pm SW 15.0 17.1----29.64- 39.2 39.0----
2024-03-02 03:18 pm SW 12.0 15.0----29.63- 39.4 39.0----
2024-03-02 03:12 pm SW 12.0 15.0----29.64- 39.4 39.0----
2024-03-02 03:06 pm SW 12.0 15.9----29.64- 39.7 39.2----
2024-03-02 03:00 pm SW 13.0 15.9----29.65+0.00 39.9 39.4----
2024-03-02 02:54 pm SW 14.0 15.9----29.65- 39.7 39.4----
2024-03-02 02:48 pm SW 14.0 15.9----29.65- 40.3 39.2----
2024-03-02 02:42 pm SW 13.0 15.0----29.65- 39.9 39.2----
2024-03-02 02:36 pm SW 13.0 17.1----29.66- 39.6 39.2----
2024-03-02 02:30 pm SW 14.0 18.1----29.66- 39.6 39.2----
2024-03-02 02:24 pm SW 13.0 17.1----29.66- 39.7 39.2----
2024-03-02 02:18 pm SW 14.0 18.1----29.66- 40.3 39.0----
2024-03-02 02:12 pmWSW 12.0 15.9----29.65- 40.5 39.0----
2024-03-02 02:06 pm SW 12.0 14.0----29.65- 40.5 38.8----
2024-03-02 02:00 pm SW 13.0 14.0----29.65+0.00 40.5 38.8----
2024-03-02 01:54 pm SW 7.0 12.0----29.65- 40.6 38.8----
2024-03-02 01:48 pmSSW 7.0 12.0----29.65-- 38.8----
2024-03-02 01:42 pmSSW 8.9 12.0----29.66-- 38.8----
2024-03-02 01:36 pm SW 9.9 11.1----29.66-- 38.8----
2024-03-02 01:30 pmWSW 6.0 6.0----29.66- 41.0 38.8----
2024-03-02 01:24 pm W 4.1 6.0----29.65- 41.4 38.8----
2024-03-02 01:18 pm NW 5.1 6.0----29.65-- 38.8----
2024-03-02 01:12 pmWNW 5.1 6.0----29.65-- 38.8----
2024-03-02 01:00 pmWNW 4.1 5.1----29.65- 41.5 38.8----
2024-03-02 12:54 pm W 4.1 5.1----29.65- 41.5 38.8----
2024-03-02 12:48 pm W 2.9 5.1----29.65- 41.5 38.8----
2024-03-02 12:42 pm W 2.9 6.0----29.65- 41.4 38.8----
2024-03-02 12:36 pmWNW 2.9 6.0----29.65- 41.4 38.8----
2024-03-02 12:30 pmNNW 4.1 5.1----29.65-- 38.8----
2024-03-02 12:24 pm NW 1.9 2.9----29.65-- 38.8----
2024-03-02 12:18 pmNNW 4.1 5.1----29.65-- 38.8----
2024-03-02 12:12 pm NW 2.9 4.1----29.65-- 38.8----
2024-03-02 12:06 pmWNW 4.1 4.1----29.65-- 38.8----
2024-03-02 12:00 pmWNW 2.9 5.1----29.65+0.02 40.8 38.8----
2024-03-02 11:54 amWNW 2.9 4.1----29.65- 41.0 38.8----
2024-03-02 11:48 am W 2.9 4.1----29.65- 41.2 38.8----
2024-03-02 11:42 amNNW 4.1 4.1----29.65- 41.2 38.8----
2024-03-02 11:36 am NW 2.9 4.1----29.65- 41.2 38.8----
2024-03-02 11:30 am NW 1.9 2.9----29.65- 40.8-----
2024-03-02 11:24 amWNW 1.9 2.9----29.65- 40.5-----
2024-03-02 11:18 amNNW 2.9 5.1----29.65- 40.1 38.7----
2024-03-02 11:12 am N 2.9 5.1----29.65- 39.7 38.7----
2024-03-02 11:06 amNNW 4.1 5.1----29.65- 39.6 38.7----
2024-03-02 11:00 amNNW 4.1 4.1----29.65+0.03 39.4 38.7----
2024-03-02 10:54 am NW 2.9 4.1----29.65- 39.2 38.7----
2024-03-02 10:48 am NW 2.9 4.1----29.65-- 38.7----
2024-03-02 10:42 amWNW 4.1 5.1----29.65-- 38.7----
2024-03-02 10:36 amWNW 4.1 5.1----29.65-- 38.7----
2024-03-02 10:30 amWNW 4.1 5.1----29.65- 38.8 38.7----
2024-03-02 10:24 amWNW 4.1 6.0----29.65- 38.8 38.7----
2024-03-02 10:18 amWNW 5.1 7.0----29.64- 38.7 38.7----
2024-03-02 10:12 amWNW 5.1 6.0----29.64- 38.7 38.7----
2024-03-02 10:06 am NW 5.1 7.0----29.64- 38.7 38.7----
2024-03-02 10:00 am--------- 38.7-----
2024-03-02 09:54 am--------- 38.8-----
2024-03-02 09:48 amWNW 6.0 8.9----29.64- 38.7 38.7----
2024-03-02 09:42 amWNW 7.0 8.0----29.64- 38.5 38.7----
2024-03-02 09:36 amWNW 7.0 8.0----29.64- 38.5 38.7----
2024-03-02 09:30 amWNW 6.0 7.0----29.64- 38.3 38.7----
2024-03-02 09:24 amWNW 2.9 5.1----29.63- 38.1 38.7----
2024-03-02 09:18 am NW 4.1 6.0----29.63- 37.6 38.7----
2024-03-02 09:12 amWNW 6.0 7.0----29.63- 37.6 38.7----
2024-03-02 09:06 amWNW 6.0 8.9----29.63- 37.8 38.7----
2024-03-02 09:00 amWNW 8.0 11.1----29.63+0.05 37.8 38.7----
2024-03-02 08:54 amWNW 9.9 11.1----29.63- 37.9 38.7----
2024-03-02 08:48 amWNW 8.0 9.9----29.63- 37.4 38.7----
2024-03-02 08:42 amWNW 8.0 8.9----29.63- 37.4 38.7----
2024-03-02 08:36 amWNW 7.0 8.9----29.63- 37.4 38.7----
2024-03-02 08:30 amWNW 7.0 8.9----29.62- 37.4 38.7----
2024-03-02 08:24 amWNW 7.0 8.0----29.62- 37.6 38.7----
2024-03-02 08:18 am NW 7.0 8.9----29.62- 37.8 38.7----
2024-03-02 08:12 am NW 8.0 8.9----29.62- 37.8 38.7----
2024-03-02 08:06 am NW 8.0 9.9----29.62- 37.8 38.7----
2024-03-02 08:00 am NW 8.0 8.9----29.62+0.05 37.6 38.7----
2024-03-02 07:54 am NW 6.0 8.0----29.62- 37.6 38.7----
2024-03-02 07:48 am NW 6.0 8.9----29.61- 37.8 38.7----
2024-03-02 07:42 am NW 7.0 8.0----29.61- 37.8 38.8----
2024-03-02 07:36 am NW 8.0 8.9----29.61- 37.9 38.8----
2024-03-02 07:30 am NW 8.0 11.1----29.61- 37.8 38.8----
2024-03-02 07:24 amWNW 8.0 9.9----29.61- 37.9 38.8----
2024-03-02 07:18 amWNW 8.9 11.1----29.61- 37.9 38.8----
2024-03-02 07:12 amWNW 9.9 12.0----29.60- 37.9 38.8----
2024-03-02 07:06 amWNW 12.0 14.0----29.60- 37.9 38.8----
2024-03-02 07:00 amWNW 11.1 13.0----29.59+0.04 37.9 38.8----
2024-03-02 06:54 amWNW 11.1 13.0----29.59- 37.9 38.8----
2024-03-02 06:48 amWNW 9.9 11.1----29.59- 37.9 38.8----
2024-03-02 06:42 amWNW 8.0 11.1----29.59- 37.9 38.8----
2024-03-02 06:36 amWNW 8.0 9.9----29.59- 38.1 38.8----
2024-03-02 06:30 amWNW 8.9 11.1----29.59- 38.3 38.8----
2024-03-02 06:24 am NW 8.9 11.1----29.58- 38.5 38.8----
2024-03-02 06:18 am NW 9.9 13.0----29.58- 38.5 38.8----
2024-03-02 06:12 am NW 11.1 13.0----29.58- 38.5 38.8----
2024-03-02 06:06 amNNW 11.1 13.0----29.58- 38.5 38.8----
2024-03-02 06:00 am NW 11.1 12.0----29.58+0.03 38.5 38.8----
2024-03-02 05:54 am NW 11.1 13.0----29.58- 38.5 38.8----
2024-03-02 05:48 am NW 9.9 14.0----29.58- 38.7 38.8----
2024-03-02 05:42 am NW 12.0 14.0----29.58- 38.7 38.8----
2024-03-02 05:36 am NW 12.0 14.0----29.58- 38.7 38.8----
2024-03-02 05:30 am NW 12.0 15.0----29.58-- 38.8----
2024-03-02 05:24 am NW 13.0 15.9----29.58-- 38.8----
2024-03-02 05:18 am NW 13.0 15.0----29.58- 39.0 38.8----
2024-03-02 05:12 am NW 13.0 15.0----29.58- 39.0 38.8----
2024-03-02 05:06 amWNW 13.0 15.9----29.57- 39.2 38.8----
2024-03-02 05:00 amWNW 8.0 9.9----29.57+0.04 39.6 38.8----
2024-03-02 04:54 amWNW 7.0 8.0----29.57- 39.6 38.8----
2024-03-02 04:48 amWNW 7.0 8.0----29.57- 39.6 38.8----
2024-03-02 04:42 amWNW 8.0 8.0----29.57- 39.6 38.8----
2024-03-02 04:36 am NW 7.0 9.9----29.56- 39.6 38.8----
2024-03-02 04:30 am NW 7.0 8.0----29.56- 39.6 38.8----
2024-03-02 04:24 am NW 6.0 8.9----29.56- 39.6 38.8----
2024-03-02 04:18 am NW 8.9 11.1----29.56- 39.6 38.8----
2024-03-02 04:12 am NW 8.9 11.1----29.56- 39.7 38.8----
2024-03-02 04:06 am NW 9.9 12.0----29.56- 39.7 38.8----
2024-03-02 04:00 am NW 8.9 11.1----29.56+0.04 39.7 38.8----
2024-03-02 03:54 am NW 9.9 12.0----29.56- 39.9 38.8----
2024-03-02 03:48 am NW 9.9 12.0----29.56- 39.9 38.8----
2024-03-02 03:42 am NW 9.9 11.1----29.56- 39.9 38.8----
2024-03-02 03:36 am NW 11.1 12.0----29.56- 40.1 38.8----
2024-03-02 03:30 am NW 11.1 13.0----29.56- 40.1 38.8----
2024-03-02 03:24 am NW 12.0 13.0----29.56- 40.1 38.8----
2024-03-02 03:18 am NW 11.1 12.0----29.56- 39.9 38.8----
2024-03-02 03:12 am NW 8.9 12.0----29.56- 39.9 38.8----
2024-03-02 03:06 am NW 9.9 14.0----29.56- 40.1 38.8----
2024-03-02 03:00 am NW 9.9 12.0----29.56+0.04 40.3 38.8----
2024-03-02 02:54 am NW 9.9 13.0----29.55- 40.5 38.8----
2024-03-02 02:48 am NW 9.9 12.0----29.55-- 38.8----
2024-03-02 02:42 am NW 8.9 12.0----29.55-- 38.8----
2024-03-02 02:36 am NW 8.9 11.1----29.54-- 38.8----
2024-03-02 02:30 am NW 8.9 11.1----29.54- 41.4 38.8----
2024-03-02 02:24 am NW 7.0 8.9----29.54- 41.5 38.8----
2024-03-02 02:18 amWNW 6.0 7.0----29.54- 41.2 38.8----
2024-03-02 02:12 am W 7.0 8.9----29.54- 41.0 38.8----
2024-03-02 02:06 am W 7.0 8.0----29.54- 41.0 38.8----
2024-03-02 02:00 amWNW 7.0 7.0----29.53+0.03 41.0 38.8----
2024-03-02 01:54 am W 7.0 8.0----29.53- 41.0 38.8----
2024-03-02 01:48 am W 8.0 8.0----29.52- 41.2 38.8----
2024-03-02 01:42 amWNW 8.0 8.9----29.52- 41.2 38.8----
2024-03-02 01:36 amWNW 6.0 7.0----29.52- 40.8 38.8----
2024-03-02 01:30 am-------29.52-------
2024-03-02 01:24 am-------29.52-------
2024-03-02 01:18 amWNW 7.0 8.0----29.52- 40.6 38.8----
2024-03-02 01:12 amWNW 8.0 8.9----29.52- 40.8 38.8----
2024-03-02 01:06 am W 7.0 8.9----29.52- 40.6 38.8----
2024-03-02 01:00 amWNW 7.0 8.9----29.52+0.02- 38.8----
2024-03-02 12:54 amWNW 5.1 6.0----29.51-- 38.8----
2024-03-02 12:48 am---------- 38.8----
2024-03-02 12:42 am---------- 38.8----
2024-03-02 12:36 am---------- 38.8----
2024-03-02 12:30 amWNW 7.0 8.0----29.51- 40.8 38.8----
2024-03-02 12:24 amWNW 7.0 8.0----29.51- 40.6 38.8----
2024-03-02 12:18 amWNW 7.0 8.0----29.51-- 38.8----
2024-03-02 12:12 amWNW 6.0 7.0----29.51-- 38.8----
2024-03-02 12:06 amWNW 7.0 7.0----29.51-- 38.8----
2024-03-02 12:00 amWNW 6.0 7.0----29.52+0.03 40.5 38.8----
2024-03-01 11:54 pmWNW 7.0 8.0----29.52- 40.5 38.8----
2024-03-01 11:48 pmWNW 7.0 8.0----29.52- 40.3 38.8----
2024-03-01 11:42 pmWNW 7.0 8.0----29.51- 40.1 38.8----
2024-03-01 11:36 pmWNW 7.0 8.9----29.51- 40.1 38.8----
2024-03-01 11:30 pmWNW 8.0 9.9----29.52- 40.1 38.8----
2024-03-01 11:24 pmWNW 8.9 11.1----29.52- 40.1 38.8----
2024-03-01 11:18 pmWNW 9.9 12.0----29.51- 40.1 38.8----
2024-03-01 11:12 pm NW 8.0 9.9----29.51- 39.9 38.8----
2024-03-01 11:06 pm NW 8.9 11.1----29.51- 39.9 38.8----
2024-03-01 11:00 pm NW 8.0 8.9----29.51+0.03 39.9 38.8----
2024-03-01 10:54 pm NW 8.0 8.9----29.51- 39.9 38.8----
2024-03-01 10:48 pm NW 7.0 9.9----29.51- 39.9 38.8----
2024-03-01 10:42 pm NW 7.0 8.9----29.51- 39.9 38.8----
2024-03-01 10:36 pm NW 8.0 11.1----29.50- 39.9 38.8----
2024-03-01 10:30 pm NW 8.0 11.1----29.50- 39.9 38.8----
2024-03-01 10:24 pm NW 8.0 9.9----29.50- 39.9 38.8----
2024-03-01 10:18 pmWNW 8.9 9.9----29.50- 39.7 38.8----
2024-03-01 10:12 pmWNW 9.9 12.0----29.50- 39.6 39.0----
2024-03-01 10:06 pmWNW 9.9 11.1----29.50- 39.4 39.0----
2024-03-01 10:00 pmWNW 9.9 11.1----29.50+0.06 39.4 39.0----
2024-03-01 09:54 pmWNW 8.9 11.1----29.50- 39.4 39.0----
2024-03-01 09:48 pmWNW 8.9 13.0----29.50- 39.4 39.0----
2024-03-01 09:42 pmWNW 9.9 12.0----29.49- 39.4 39.0----
2024-03-01 09:36 pmWNW 8.9 11.1----29.49- 39.4 39.0----
2024-03-01 09:30 pm NW 9.9 13.0----29.49- 39.4-----
2024-03-01 09:24 pmWNW 9.9 13.0----29.49- 39.4-----
2024-03-01 09:18 pmWNW 12.0 14.0----29.49- 39.4 39.0----
2024-03-01 09:12 pmWNW 11.1 15.0----29.49- 39.4 39.0----
2024-03-01 09:06 pmWNW 12.0 14.0----29.49- 39.2 39.0----
2024-03-01 09:00 pmWNW 12.0 14.0----29.49+0.04 39.2 39.0----
2024-03-01 08:54 pmWNW 12.0 14.0----29.49- 39.2 39.0----
2024-03-01 08:48 pmWNW 12.0 15.0----29.48- 39.2 39.0----
2024-03-01 08:42 pm NW 11.1 14.0----29.48- 39.2 39.0----
2024-03-01 08:36 pm NW 11.1 13.0----29.48- 39.2 39.2----
2024-03-01 08:30 pm NW 11.1 13.0----29.48- 39.2 39.2----
2024-03-01 08:24 pm NW 11.1 14.0----29.48- 39.2 39.0----
2024-03-01 08:18 pm NW 11.1 13.0----29.48- 39.2-----
2024-03-01 08:12 pm NW 12.0 14.0----29.48- 39.4-----
2024-03-01 08:06 pm NW 12.0 13.0----29.48- 39.2-----
2024-03-01 08:00 pmWNW 9.9 12.0----29.48+0.03 39.2 39.0----
2024-03-01 07:54 pmWNW 11.1 13.0----29.47- 39.2 39.0----
2024-03-01 07:48 pmWNW 9.9 13.0----29.47- 39.2 39.2----
2024-03-01 07:42 pmWNW 11.1 13.0----29.47- 39.2 39.2----
2024-03-01 07:36 pmWNW 11.1 15.9----29.46- 39.2 39.2----
2024-03-01 07:30 pmWNW 13.0 15.9----29.46- 39.4 39.2----
2024-03-01 07:24 pmWNW 13.0 15.9----29.46- 39.4 39.2----
2024-03-01 07:18 pmWNW 13.0 15.0----29.45- 39.4 39.2----
2024-03-01 07:12 pmWNW 15.9 19.0----29.45- 39.6 39.2----
2024-03-01 07:06 pmWNW 14.0 17.1----29.44- 39.6 39.2----
2024-03-01 07:00 pmWNW 14.0 17.1----29.44+0.00 39.6 39.2----
2024-03-01 06:54 pmWNW 14.0 15.9----29.44- 39.6 39.2----
2024-03-01 06:48 pmWNW 13.0 15.9----29.44- 39.6 39.2----
2024-03-01 06:42 pmWNW 12.0 14.0----29.44- 39.6 39.2----
2024-03-01 06:36 pmWNW 11.1 13.0----29.44- 39.6 39.2----
2024-03-01 06:30 pmWNW 12.0 13.0----29.44- 39.4 39.2----
2024-03-01 06:24 pm NW 9.9 12.0----29.44- 39.6 39.2----
2024-03-01 06:18 pmWNW 9.9 11.1----29.44- 39.6 39.2----
2024-03-01 06:12 pmWNW 8.9 12.0----29.45- 39.6 39.2----
2024-03-01 06:06 pmWNW 8.9 11.1----29.45- 39.6 39.2----
2024-03-01 06:00 pmWNW 9.9 12.0----29.45+0.00 39.6 39.4----
2024-03-01 05:54 pm NW 11.1 13.0----29.44- 39.7 39.4----